Location: L�Ave Maria
(50.7161°N, 1.5911°E)
Time: 13:26:34
(UTC+00:00)

Cosmos 1500 Rocket - Pass Details

Date: 10 July 2020
Orbit: 602 x 632 km, 82.5° (Epoch: 06 August)

Event Time Altitude Azimuth Distance (km) Brightness Sun altitude
Exits shadow 23:31:01 34° 172° (S) 1,033 4.1 -16.9°
Maximum altitude 23:32:52 70° 97° (E) 660 3.6 -17.0°
Drops below altitude 10° 23:37:14 10° 14° (NNE) 1,981 7.3 -17.1°
Sets 23:39:27 0° 13° (NNE) 2,886 8.4 -17.1°
